Regional Weather Roundup
Issued by NWS

Home | Current Version | Previous Version | Text Only | Print | Product List | Glossary On
Versions: 1 2 3 4 5 6 7 8 9 10 11 12 13 14 15 16 17 18 19 20 21 22 23 24 25 26 27 28
000
ASUS42 KKEY 240810
RWRKEY

FLORIDA REGIONAL WEATHER ROUNDUP FOR THE FLORIDA KEYS
NATIONAL WEATHER SERVICE KEY WEST FLORIDA
300 AM EST SAT FEB 24 2018

...SOUTH FLORIDA AND THE KEYS...

CITY           SKY/WX    TMP DP  RH WIND       PRES   REMARKS
FORT MYERS     MOCLDY    69  67  93 E8        30.20F
SW REGIONAL AP MOCLDY    67  67 100 E7        30.21F
NAPLES         CLOUDY    70  67  90 E7        30.20F
MIAMI          MOCLDY    72  69  90 E8        30.20F
WEST KENDALL   FAIR      72  67  84 E9        30.20F
HOMESTEAD      MOCLDY    74  67  76 E12       30.18F
MARATHON       FAIR      75  67  76 E8        30.16F
KEY WEST INTL  MOCLDY    74  68  81 E14       30.17F

...INTERNATIONAL WEATHER...

CITY           SKY/WX    TMP DP  RH WIND       PRES   REMARKS
NASSAU BAHAMAS MOCLDY    73  66  78 NE7       30.20F
CANCUN MEXICO  PTCLDY    77  66  69 E8        30.09F
COZUMEL MEXICO PTCLDY    70  66  88 E7        30.06F

ADJACENT COASTAL WATERS...

STATION/POSITION TIME  SKY/WX   TEMP    WIND        PRES    WAVE
                                AIR SEA DIR/SP/G            HT/PER
                 (UTC)          (F)     (DEG/KT/KT) (MB)    (FT/S)
PULASKI SHOAL LI 0800            74     100/ 16/ 17 1021.2F
SAND KEY         0750            74                 1021.9F
LONG KEY         0800            76     130/ 13       N/A
MOLASSES REEF    NOT AVBL
FOWEY ROCKS      0800            75 76   90/ 21/ 22 1022.9F
Buoy 42097       0730               75                N/A     2/ 4

$$




USA.gov is the U.S. government's official web portal to all federal, state and local government web resources and services.